Belize City, Belize

7:29 AM CST on December 04, 2016 (GMT -0600)
Philip S W Goldson International

Weather History for MZBZ - December, 2011

Change the Weather History Date:

Sunday, December 11, 2011

  Actual Average Record
Temperature  
Mean Temperature 74 °F -  
Max Temperature 81 °F 81 °F 87 °F (1997)
Min Temperature 66 °F 70 °F 64 °F (2010)
Cooling Degree Days 8    
Growing Degree Days 24 (Base 50)    
Moisture  
Dew Point 66 °F    
Average Humidity 76    
Maximum Humidity 95    
Minimum Humidity 51    
Precipitation  
Precipitation 0.00 in - - ()
Sea Level Pressure  
Sea Level Pressure 30.03 in    
Wind  
Wind Speed 6 mph ()    
Max Wind Speed 12 mph    
Max Gust Speed -    
Visibility 7.4 miles    
Events Rain    
Averages and records for this station are not official NWS values.
T = Trace of Precipitation, MM = Missing Value Source: Averaged Metar Reports

Daily Weather History Graph

Daily Weather History Graph

Search for Another Location

Airport or City:

Trip Planner

Search our weather history database for the weather conditions in past years. The results will help you decide how hot, cold, wet, or windy it might be!

Date:

Astronomy

Dec. 11, 2011 Rise Set
Actual Time 6:13 AM CST 5:19 PM CST
Civil Twilight 5:49 AM CST 5:43 PM CST
Nautical Twilight 5:22 AM CST 6:10 PM CST
Astronomical Twilight 4:55 AM CST 6:36 PM CST
Moon 6:28 PM CST (12/11) 7:01 AM CST (12/11)
Length of Visible Light 11h 53m
Length of Day
11h 06m
Full, 99% of the Moon is Illuminated
Dec 11
Full
Dec 17
Last Quarter
Dec 24
New
Jan 1
First Quarter
Jan 9
Full

Hourly Weather History & Observations

Time (CST) Temp. Heat Index Dew Point Humidity Pressure Visibility Wind Dir Wind Speed Gust Speed Precip Events Conditions
12:00 AM 68 °F - 64 °F 82% 30.06 in 12 mi West 5.8 mph - -  
12:00 AM 68.0 °F - 64.4 °F 88% 30.04 in 6.2 mi West 5.8 mph - N/A   Mostly Cloudy
3:00 AM 66 °F - 63 °F 88% 30.03 in 12 mi WNW 5.8 mph - -   Partly Cloudy
3:00 AM 66.2 °F - 62.6 °F 88% 30.01 in - WNW 5.8 mph - N/A   Clear
6:00 AM 67 °F - 66 °F 95% 30.05 in 4 mi WNW 6.9 mph - -  
6:00 AM 68.0 °F - 66.2 °F 94% 30.04 in 4.3 mi WNW 6.9 mph - N/A   Mostly Cloudy
7:00 AM 68.0 °F - 66.2 °F 94% 30.06 in 1.2 mi WNW 6.9 mph - N/A Rain Rain
9:00 AM 71.6 °F - 66.2 °F 83% 30.11 in 6.2 mi NW 10.4 mph - N/A   Mostly Cloudy
10:00 AM 73.4 °F - 66.2 °F 78% 30.10 in 6.2 mi West 11.5 mph - N/A   Mostly Cloudy
11:00 AM 77.0 °F - 66.2 °F 69% 30.07 in 6.2 mi NW 10.4 mph - N/A   Scattered Clouds
12:00 PM 78 °F - 67 °F 62% 30.05 in 12 mi WNW 11.5 mph - -  
12:00 PM 77.0 °F - 68.0 °F 74% 30.04 in 6.2 mi WNW 11.5 mph - N/A   Scattered Clouds
1:00 PM 80.6 °F 83.2 °F 68.0 °F 65% 30.01 in 6.2 mi West 8.1 mph - N/A   Scattered Clouds
2:00 PM 80.6 °F 82.7 °F 66.2 °F 61% 29.99 in 6.2 mi WNW 10.4 mph - N/A   Scattered Clouds
3:00 PM 81 °F - 66 °F 51% 29.98 in 12 mi WNW 9.2 mph - -   Partly Cloudy
3:00 PM 80.6 °F 82.7 °F 66.2 °F 61% 29.97 in 6.2 mi WNW 9.2 mph - N/A   Partly Cloudy
4:00 PM 80.6 °F 82.3 °F 64.4 °F 58% 29.97 in 6.2 mi WNW 9.2 mph - N/A   Partly Cloudy
5:00 PM 78.8 °F - 66.2 °F 65% 29.98 in 6.2 mi WNW 5.8 mph - N/A   Partly Cloudy
6:00 PM 75 °F - 67 °F 68% 30.01 in 12 mi West 4.6 mph - -  
6:00 PM 75.2 °F - 66.2 °F 73% 30.00 in 6.2 mi West 4.6 mph - N/A   Partly Cloudy
9:00 PM 72 °F - 67 °F 81% 30.07 in 12 mi WNW 3.5 mph - -   Scattered Clouds
9:00 PM 71.6 °F - 68.0 °F 88% 30.06 in 6.2 mi WNW 3.5 mph - N/A   Partly Cloudy